Flag Weather past 2 weeks in Stavanger, Norway

Now
45 °F

Passing clouds.


Feels Like: 39 °F
Forecast: 43 / 46 °F
Wind: 12 mph from Southeast

Location: Stavanger / Sola

Current Time: Nov 27, 2014 at 8:43:40 PM

Latest Report: Nov 27, 2014 at 7:50 PM


Visibility: N/A

Pressure: 30.01 "Hg

Humidity: 61%

Dew point: 32 °F

Location of StavangerLocation

Historic Weather in Stavanger — Graph

°F

Stavanger temperature yesterday

Maximum temperature yesterday: 48 °F (at 2:20 PM)
Minimum temperature yesterday: 36 °F (at 12:20 AM)
Average temperature yesterday: 42 °F

Past Weeks' High & Low Weather Summary

 TemperatureHumidityPressure
High54 °F (Nov 12, 7:20 PM)100% (Nov 23, 2:20 PM)30.48 "Hg (Nov 23, 2:20 PM)
Low30 °F (Nov 22, 5:20 AM)47% (Nov 16, 2:50 PM)29.68 "Hg (Nov 23, 8:20 PM)
Average46 °F72%30.09 "Hg
* Reported Nov 12 7:20 PM — Nov 27 7:50 PM, Stavanger, Weather by CustomWeather, © 2014

Note: Actual official high and low records may vary slightly from our data, if they occured in-between our weather recording intervals... More about our weather records

Advertising

Stavanger weather history for previous 24 hours

 ConditionsComfort  
Time TempWeatherWind HumidityBarometerVisibility
7:50 PM
Nov 27
45 °FPassing clouds.12 mph61%30.01 "HgN/A
7:20 PM45 °FPassing clouds.9 mph61%30.01 "HgN/A
6:50 PM45 °FPassing clouds.7 mph61%30.01 "HgN/A
6:20 PM45 °FPassing clouds.7 mph57%29.98 "HgN/A
5:50 PM45 °FPassing clouds.12 mph61%29.98 "HgN/A
5:20 PM45 °FPassing clouds.10 mph61%29.98 "HgN/A
4:50 PM45 °FPassing clouds.6 mph61%29.98 "HgN/A
4:20 PM45 °FPassing clouds.3 mph61%29.98 "HgN/A
3:50 PM45 °FPassing clouds.1 mph61%29.98 "HgN/A
3:20 PM46 °FPassing clouds.5 mph57%29.98 "HgN/A
2:50 PM46 °FPassing clouds.12 mph57%29.98 "HgN/A
2:20 PM46 °FPassing clouds.10 mph57%29.98 "HgN/A
1:50 PM46 °FPassing clouds.16 mph57%29.98 "HgN/A
1:20 PM46 °FPassing clouds.20 mph62%29.98 "HgN/A
12:50 PM46 °FPassing clouds.16 mph62%29.98 "HgN/A
12:20 PM46 °FPassing clouds.17 mph62%30.01 "HgN/A
11:50 AM46 °FPassing clouds.14 mph66%29.98 "HgN/A
11:20 AM46 °FPassing clouds.10 mph66%29.98 "HgN/A
10:50 AM46 °FPassing clouds.7 mph62%29.98 "HgN/A
10:20 AM45 °FPassing clouds.6 mph66%29.98 "HgN/A
9:50 AM45 °FPassing clouds.8 mph66%29.98 "HgN/A
9:20 AM43 °FPassing clouds.7 mph71%29.98 "HgN/A
8:50 AM45 °FClear.6 mph66%29.98 "Hg10 mi
8:20 AM43 °FClear.7 mph71%29.98 "Hg10 mi
7:50 AM43 °FClear.9 mph71%29.98 "Hg10 mi
7:20 AM43 °FClear.9 mph71%29.98 "Hg10 mi
6:50 AM43 °FClear.6 mph71%29.98 "Hg10 mi
6:20 AM43 °FClear.6 mph71%29.98 "Hg10 mi
5:50 AM41 °FClear.6 mph76%30.01 "Hg10 mi
4:50 AM36 °FClear.8 mph93%30.01 "Hg10 mi
3:50 AM36 °FClear.5 mph87%30.04 "Hg10 mi
2:50 AM36 °FPassing clouds.5 mph87%30.04 "HgN/A
1:50 AM36 °FClear.1 mph93%30.04 "Hg10 mi
12:50 AM36 °FClear.No wind87%30.04 "Hg10 mi
12:20 AM36 °FClear.No wind87%30.07 "Hg10 mi
11:50 PM
Nov 26
36 °FClear.1 mph87%30.07 "Hg10 mi
11:20 PM37 °FClear.No wind87%30.07 "Hg10 mi
10:50 PM37 °FClear.2 mph93%30.07 "Hg10 mi
10:20 PM37 °FClear.2 mph93%30.07 "Hg10 mi
9:50 PM39 °FClear.1 mph81%30.07 "Hg10 mi
9:20 PM37 °FClear.3 mph87%30.07 "Hg10 mi
8:50 PM37 °FClear.6 mph87%30.09 "Hg10 mi
8:20 PM37 °FClear.2 mph87%30.09 "Hg10 mi
Weather by CustomWeather, © 2014

See weather overviewHow to use our weather pages